[ hide orbit diagram ]
For accurate long-term ephemerides, please instead use our Horizons system.This orbit viewer was implemented using two-body methods, and hence should not be used for determining accurate long-term trajectories (over several years or decades) or planetary encounter circumstances.
[ revert to old Java-based viewer ]
Orbital Elements at Epoch 2458600.5 (2019-Apr-27.0) TDB
Reference: JPL 29 (heliocentric ecliptic J2000)
Element | Value | Uncertainty (1-sigma) | Units |
e | .2398309196476191 | 4.4656e-08 | |
a | 2.352882156881641 | 1.0358e-08 | au |
q | 1.788588265374244 | 1.0798e-07 | au |
i | 23.08623479423771 | 5.3169e-06 | deg |
node | 240.4156262257282 | 1.0595e-05 | deg |
peri | 209.5724206330245 | 1.4735e-05 | deg |
M | 3.30091475926004 | 1.1399e-05 | deg |
tp | 2458588.412666633824 (2019-Apr-14.91266663) | 4.1699e-05 | TDB |
period | 1318.252766029911 3.61 | 8.7049e-06 2.383e-08 | d yr |
n | .2730887499551294 | 1.8033e-09 | deg/d |
Q | 2.917176048389039 | 1.2842e-08 | au |
|
| | Orbit Determination Parameters
Additional Information
|
[ show covariance matrix ]
Physical Parameter Table
Parameter |
Symbol |
Value |
Units |
Sigma |
Reference |
Notes |
absolute magnitude |
H |
12.8 |
|
n/a |
MPO358792 |
|
diameter |
diameter |
6.767 |
km |
0.102 |
urn:nasa:pds:neowise_diameters_albedos::2.0[mainbelt] (http://adsabs.harvard.edu/abs/2011ApJ...741...68M) |
|
geometric albedo |
albedo |
0.352 |
|
0.103 |
urn:nasa:pds:neowise_diameters_albedos::2.0[mainbelt] (http://adsabs.harvard.edu/abs/2011ApJ...741...68M) |
|
|
16666 Liroma | Discovered 1993 Dec. 7 by C. S. Shoemaker at Palomar. |
The Meiers are a family of amateur astronomers living near Ottawa, Ontario. Linda (b. 1950) is an active observer. Between 1978 and 1984, Rolf (b. 1953) discovered four comets and has recently built an observatory. Son Matthew (b. 1985) has joined the Royal Astronomical Society of Canada's Ottawa Center. |
NOTE: some special characters may not display properly (any characters within {} are an attempt to place the proper accent above a character) |
Reference: 20010109/MPCPages.arc | Last Updated: 2009-05-11 |
|
|